Location: Heppenheim
(49.6410°N, 8.6370°E)
Time: 15:57:01
(UTC+02:00)

ISS - Pass Details

Date: 12 May 2026
Orbit: 414 x 424 km, 51.6° (Epoch: 10 May)

Event Time Altitude Azimuth Distance (km) Brightness Sun altitude
Rises 00:54:52 0° 284° (WNW) 2,355 0.3 -22.0°
Reaches altitude 10° 00:56:58 10° 287° (WNW) 1,493 -0.7 -22.1°
Enters shadow 00:59:21 42° 301° (WNW) 605 -2.8 -22.1°
